Regional Weather Roundup
Issued by NWS

Home | Current Version | Previous Version | Graphics & Text | Print | Product List | Glossary On
Versions: 1 2 3 4 5 6 7 8 9 10 11 12 13 14 15 16 17 18 19 20 21 22 23 24 25 26 27 28 29 30 31 32 33 34 35 36 37 38 39 40 41 42 43 44 45 46 47 48 49 50
331
ASUS43 KLMK 240010
RWRKY
KENTUCKY REGIONAL WEATHER ROUNDUP
NATIONAL WEATHER SERVICE LOUISVILLE KY
800 PM EDT TUE AUG 23 2016

NOTE "FAIR" INDICATES FEW OR NO CLOUDS BELOW 12,000 FEET
WITH NO SIGNIFICANT WEATHER AND/OR OBSTRUCTIONS TO VISIBILITY.

KYZ001>023-026-027-061>063-070>075-240100-
WESTERN AND SOUTH CENTRAL KENTUCKY

CITY           SKY/WX    TMP DP  RH WIND       PRES   REMARKS
PADUCAH        PTCLDY    79  71  76 CALM      30.14F
HENDERSON      CLOUDY    79  66  65 CALM      30.16S
OWENSBORO      CLOUDY    79  67  66 SE5       30.18F
HOPKINSVILLE   CLOUDY    80  71  74 VRB3      30.17F
BOWLING GREEN  CLOUDY    80  67  64 NE3       30.19F
GLASGOW        CLOUDY    75  68  77 E3        30.20F
$$

KYZ024-025-028>034-038-045-046-053-240100-
NORTH CENTRAL KENTUCKY

CITY           SKY/WX    TMP DP  RH WIND       PRES   REMARKS
LOUISVILLE/SDF CLOUDY    80  60  50 SE6       30.19F
LOUISVILLE/LOU CLOUDY    80  60  50 SE5       30.20F
FORT KNOX      CLOUDY    76  65  69 NE2       30.19F
$$

KYZ035>037-039>044-047>052-055>060-089>105-240100-
NORTHEAST KENTUCKY

CITY           SKY/WX    TMP DP  RH WIND       PRES   REMARKS
LEXINGTON      PTCLDY    75  64  68 SW5       30.24S
COVINGTON      MOCLDY    76  62  62 SW3       30.23R
FRANKFORT      PTCLDY    76  63  64 SW5       30.22S
$$

KYZ054-064>069-076>088-106>120-240100-
SOUTHEAST KENTUCKY

CITY           SKY/WX    TMP DP  RH WIND       PRES   REMARKS
JACKSON        CLOUDY    77  59  53 NW3       30.26S
LONDON         CLEAR     76  62  62 CALM      30.25S
SOMERSET       PTCLDY    73  64  73 CALM      30.25R
MIDDLESBORO    CLEAR     74  66  76 W3        30.26R
MONTICELLO     MOCLDY   N/A N/A N/A NE7       30.25S
$$





USA.gov is the U.S. government's official web portal to all federal, state and local government web resources and services.